Volver al catálogo

HENAN-1

ActivoCienciaPO
NORAD 53446·PAYLOAD·🇨🇳 China
Este nombre de satélite aún no ha sido confirmado por fuentes oficiales.

Lanzado Aug 10, 2022 desde Taiyuan Satellite Launch Center

Loading…

Próximos Pases (próximas 24 horas)

TLE

ActualizadoSource: Space-Track

Época: Sep 14, 2026, 15:26 UTC

1 53446U 22098C   26257.64323713  .00148036  00000-0  65892-3 0  9999
2 53446  97.5737  35.9497 0000978 269.0620  91.0537 15.83911032228727

Sigue HENAN-1 en tiempo real con AllMySat

Download on the App Store